星链-2022 (STARLINK-2022 )

导读

STARLINK-2022是美国太空探索技术公司SpaceX星链星座的组网卫星,于2021年2月16日发射升空。它属于星链低轨互联网星座建设批次,依托星链系统部署,承担着为全球提供高速低延迟卫星互联网服务的任务,推进了星链星座全球覆盖的组网进程,是美国低轨卫星星座布局的组成部分。

Basic Information
目录编号:
47643
目录名称:
STARLINK-2022
国际标识:
2021-012Z
轨道中心:
EARTH
卫星名称:
星链-2022
卫星全名:
星链-2022 (STARLINK-2022 )
卫星状态:
已陨落 最后检测时间 2026-03-24
发射日期:
2021-02-16 UTC
国别 :
美国 (US)
星等 :
--
Orbit Information
数据来源 国际轨道数据
星历时间: 2026-03-24T23:38:25+0800
轨道信息已过期125天
半长轴: 6539.597km
偏心率: 0.0006231
轨道倾角: 52.986°
近地点辐角 263.466°
升交点赤经 259.477°
平近点角 96.567°
近地点: 157.385km
远地点: 165.535km
周期: 87.717分钟
每日圈数: 16.416339
Detailed Information
固有亮度:
5
最大亮度:
2.5
卫星平台:
Starlink V1.0
覆盖范围:
全球
运营商:
太空探索技术公司
运营商所在国:
美国
制造商(研发单位):
太空探索技术公司
制造商所在国:
美国
使用方式:
暂无
Satellite Introduction
星链(Starlink)计划是由太空探索技术公司(SpaceX)提出的一个巨型低轨卫星互联网星座项目,计划在2019年至2024年间在太空搭建由约1.2万颗卫星组成的“星链”网络,其中1584颗将部署在地球上空550千米处的近地轨道,并从2020年开始工作。该卫星仍在工作。